Home   Weather   Stanley   Past weeks

Flag for Falkland Islands Past Weather in Stanley, Falkland Islands — Yesterday and Last 2 Weeks

Now
48 °F

Passing clouds.


Feels Like: 42 °F
Forecast: 49 / 56 °F
Wind: 17 mph from Southwest

Location: Mount Pleasant Airport

Current Time: Jan 21, 2017 at 11:01:32 pm

Latest Report: Jan 21, 2017 at 9:50 pm


Visibility: N/A

Pressure: 29.74 "Hg

Humidity: 87%

Dew Point: 45 °F

Location of StanleyLocation

Past Weather in Stanley — Graph

°F

Stanley Temperature Yesterday

Maximum temperature yesterday: 73 °F (at 3:50 pm)
Minimum temperature yesterday: 52 °F (at 3:50 am)
Average temperature yesterday: 61 °F

High & Low Weather Summary for the Past Weeks

 TemperatureHumidityPressure
High73 °F (Jan 20, 3:50 pm)100% (Jan 7, 2:50 am)29.74 "Hg (Jan 7, 2:50 am)
Low36 °F (Jan 11, 2:50 am)34% (Jan 16, 3:50 pm)28.97 "Hg (Jan 9, 1:50 pm)
Average50 °F76%29.37 "Hg
* Reported Jan 6 9:50 pm — Jan 21 9:50 pm, Stanley, Weather by CustomWeather, © 2017

Note: Actual official high and low records may vary slightly from our data, if they occured in-between our weather recording intervals... More about our weather records

Advertising

Stanley Weather History for the Previous 24 Hours

Scroll right to see more
 ConditionsComfort  
Time TempWeatherWind HumidityBarometerVisibility
9:50 pm
Sat, Jan 21
48 °FPassing clouds.17 mph87%29.74 "HgN/A
8:50 pm50 °FPartly sunny.22 mph88%29.68 "HgN/A
7:50 pm50 °FPartly sunny.26 mph82%29.65 "HgN/A
6:50 pm54 °FPartly sunny.24 mph72%29.65 "HgN/A
5:50 pm55 °FSunny.24 mph67%29.62 "Hg10 mi
4:50 pm57 °FPartly sunny.21 mph72%29.62 "HgN/A
3:50 pm52 °FBroken clouds.22 mph94%29.62 "HgN/A
2:50 pm54 °FSprinkles. Partly sunny.21 mph100%29.59 "HgN/A
1:50 pm55 °FPartly sunny.12 mph100%29.56 "HgN/A
12:50 pm57 °FSprinkles. Broken clouds.10 mph88%29.56 "HgN/A
11:50 am59 °FPartly sunny.3 mph82%29.53 "HgN/A
10:50 am55 °FPartly sunny.5 mph94%29.53 "HgN/A
9:50 am52 °FLight rain. Partly sunny.6 mphN/A29.53 "HgN/A
8:50 am52 °FRain. More clouds than sun.13 mph94%29.59 "Hg4 mi
7:50 am52 °FLight rain. Broken clouds.12 mph100%29.59 "HgN/A
6:50 am54 °FSunny.17 mph88%29.56 "Hg10 mi
5:50 am59 °FClear.9 mph63%29.53 "Hg10 mi
4:50 am55 °FClear.13 mph72%29.56 "Hg10 mi
3:50 am52 °FClear.12 mph88%29.56 "Hg10 mi
2:50 am54 °FClear.9 mph82%29.59 "Hg10 mi
1:50 am54 °FClear.17 mph88%29.62 "Hg10 mi
12:50 am54 °FClear.9 mph82%29.62 "Hg10 mi
11:50 pm
Fri, Jan 20
55 °FClear.7 mph82%29.62 "Hg10 mi
Weather by CustomWeather, © 2017

See weather overviewHow to use our weather pages